www.pogodaiklimat.ru

Погода и климат >> Архив погоды >> Испания >> Сьюдад-Реаль


ПОГОДА в Сьюдад-Реале

  • Прогноз погоды в Сьюдад-Реале
  • Монитор погоды в Сьюдад-Реале

АРХИВ ПОГОДЫ в Сьюдад-Реале

Время (UTC), дата Ветер
(напр.,м/с)
 
Видим.   Явления Облачность Т
(С)
Тd
(С)
f
(%)
Тe
(С)
Тes
(С)
Комфортность P
(гПа)
Po
(гПа)
Тmin
(С)
Tmax
(С)
R
(мм)
R24
(мм)
S
(см)
13 16.07 ЮЗ 4 20 км н/о +37.0 +8.8 18 +35 +35 очень
жарко
1008.0 941.2
14 16.07 ЮЗ 3 20 км н/о +37.7 +6.6 15 +35 +35 очень
жарко
1007.6 941.0
15 16.07 ЮЗ 3 20 км 3/3 1000 м
[Cu hum]
+37.8 +5.7 14 +35 +44 очень
жарко
1007.2 940.6
16 16.07 ЮЗ 3 20 км н/о +37.5 -0.7 9 +34 +34 очень
жарко
1007.1 940.4
17 16.07 ЮЗ 4 20 км н/о +36.9 -1.2 9 +33 +33 жарко 1007.2 940.3
18 16.07 ЮЗ 4 20 км ясно +35.7 +3.0 13 +33 +34 жарко 1007.5 940.4 +37.9
19 16.07 ЮЗ 3 20 км н/о +33.3 0.0 12 +30 +30 жарко 1008.4 940.7
20 16.07 ЮЗ 3 20 км н/о +31.2 +0.5 14 +28 +28 жарко 1009.3 941.1
21 16.07 ЮЗ 4 20 км н/о +29.4 +4.1 20 +28 +28 жарко 1010.3 941.7
22 16.07 ЮЗ 4 20 км н/о +27.9 +3.5 21 +26 +26 жарко 1011.1 942.1
23 16.07 З 1 20 км н/о +26.9 +2.0 20 +25 +25 комфорт 1011.8 942.5
00 17.07 З 3 20 км н/о +26.3 +2.9 22 +25 +25 комфорт 1012.1 942.7
01 17.07 ЮЗ 3 20 км н/о +25.6 +4.7 26 +25 +25 комфорт 1011.9 942.4
02 17.07 ЮЗ 3 20 км н/о +25.0 +5.2 28 +25 +25 комфорт 1012.3 942.6
03 17.07 ЮЗ 2 20 км н/о +23.9 +5.3 30 +24 +24 комфорт 1012.5 942.5
04 17.07 ЮЗ 2 20 км н/о +23.6 +5.0 30 +23 +23 комфорт 1012.4 942.4
05 17.07 ЮЗ 1 20 км н/о +22.7 +5.1 32 +23 +23 комфорт 1012.9 942.6
06 17.07 ЮЗ 2 20 км 3/0 1500 м
[Ac und]
+22.5 +5.4 33 +23 +23 комфорт 1013.1 942.8 +22.2
07 17.07 З 2 20 км н/о +24.7 +5.0 28 +24 +24 комфорт 1013.2 943.4
08 17.07 З 2 20 км н/о +26.6 +6.1 27 +26 +26 жарко 1012.9 943.5
09 17.07 ЮЗ 3 20 км 4/0
[Ac trans]
+27.8 +6.0 25 +27 +34 жарко 1012.6 943.5
10 17.07 ЮЗ 2 20 км н/о +29.6 +8.6 27 +29 +29 жарко 1012.0 943.4
11 17.07 З 3 20 км н/о +30.6 +8.3 25 +30 +30 жарко 1011.3 943.0 0.0
12 17.07 ЮЗ 3 20 км ясно +31.6 +7.9 23 +30 +45 жарко 1010.8 942.7 0.0
13 17.07 З 4 20 км н/о +32.4 +6.6 20 +31 +31 жарко 1010.0 942.1
14 17.07 СЗ 2 20 км н/о +33.5 +6.7 19 +32 +32 жарко 1009.5 941.9
15 17.07 З 2 20 км 3/0
[Cs]
+34.0 +7.1 19 +32 +44 жарко 1008.9 941.4 0.0
16 17.07 СЗ 4 20 км н/о +33.4 +7.4 20 +32 +32 жарко 1008.7 941.1
17 17.07 СЗ 4 20 км н/о +33.5 +7.5 20 +32 +32 жарко 1008.6 941.0
18 17.07 З 3 20 км 3/1 1000 м
[Cu hum Ci fib]
+32.7 +8.9 23 +32 +33 жарко 1008.7 941.0 +34.2
19 17.07 СЗ 3 20 км н/о +30.8 +8.5 25 +30 +30 жарко 1009.6 941.4
20 17.07 СЗ 3 20 км н/о +29.3 +7.2 25 +28 +28 жарко 1010.4 941.8
21 17.07 СЗ 3 20 км н/о +27.8 +6.0 25 +27 +27 жарко 1011.6 942.6
22 17.07 СЗ 3 20 км н/о +26.6 +3.8 23 +25 +25 комфорт 1012.3 942.9
23 17.07 З 2 20 км н/о +25.3 +3.8 25 +24 +24 комфорт 1013.1 943.4
00 18.07 ЮЗ 2 20 км н/о +24.5 +5.3 29 +24 +24 комфорт 1013.4 943.5
01 18.07 ЮЗ 2 20 км н/о +23.7 +6.5 33 +24 +24 комфорт 1013.1 943.1
02 18.07 ЮЗ 2 18 км н/о +22.9 +7.8 38 +24 +24 комфорт 1013.2 943.0
03 18.07 З 2 17 км н/о +22.3 +8.8 42 +24 +24 комфорт 1013.4 943.1
04 18.07 ЮЗ 1 20 км н/о +21.6 +9.5 46 +23 +23 комфорт 1013.6 943.1
05 18.07 ЮЗ 2 20 км н/о +21.0 +9.9 49 +24 +24 комфорт 1013.7 943.1
06 18.07 СВ 1 20 км ясно +20.6 +9.2 48 +23 +24 комфорт 1014.5 943.7 +20.6
07 18.07 В 1 18 км н/о +22.6 +11.0 48 +25 +25 комфорт 1014.3 944.0
08 18.07 С 1 20 км н/о +25.8 +12.3 43 +27 +27 жарко 1013.7 944.2
09 18.07 ЮЗ 1 20 км ясно +28.5 +12.8 38 +30 +43 жарко 1012.9 944.1
10 18.07 ЮЗ 2 20 км н/о +31.0 +11.9 31 +31 +31 жарко 1012.6 944.3
11 18.07 Ю 2 20 км н/о +33.1 +11.0 26 +33 +33 жарко 1011.7 943.9
12 18.07 ЮВ 2 20 км 1/1 600 м
[Cu hum]
+34.2 +10.1 23 +33 +53 опасность
солнечного
удара
1011.1 943.6
13 18.07 З 2 20 км н/о +35.5 +9.1 20 +34 +34 очень
жарко
1010.2 943.0
14 18.07 ЮВ 3 20 км н/о +36.6 +8.4 18 +35 +35 очень
жарко
1009.4 942.5
15 18.07 В 1 20 км 4/4 600 м
[Cu hum]
+36.7 +8.5 18 +35 +44 очень
жарко
1008.8 941.9
16 18.07 З 2 20 км н/о +36.2 +8.1 18 +34 +34 очень
жарко
1008.5 941.5
17 18.07 ЮВ 2 20 км н/о +36.5 +8.4 18 +35 +35 очень
жарко
1008.0 941.1
18 18.07 З 1 20 км 3/3 600 м
[Cu hum]
+35.2 +8.9 20 +34 +35 очень
жарко
1008.1 941.0 +37.0
19 18.07 С 1 20 км н/о +33.3 +8.7 22 +32 +32 жарко 1008.8 941.2
20 18.07 С 1 20 км н/о +31.9 +8.2 23 +31 +31 жарко 1009.4 941.5 0.0
21 18.07 Ю 1 20 км н/о +29.4 +9.5 29 +29 +29 жарко 1010.6 942.1 0.0
22 18.07 СЗ 2 20 км н/о +29.1 +8.2 27 +29 +29 жарко 1011.0 942.4
23 18.07 СЗ 1 20 км н/о +27.7 +8.5 30 +28 +28 жарко 1011.8 942.8
00 19.07 ЮВ 1 20 км дымка н/о +27.4 +8.8 31 +27 +27 жарко 1012.0 942.9
01 19.07 З 1 20 км н/о +25.8 +8.7 34 +26 +26 жарко 1012.0 942.6
02 19.07 З 1 20 км н/о +24.4 +8.8 37 +25 +25 комфорт 1012.4 942.6
03 19.07 З 1 20 км н/о +25.1 +8.1 34 +25 +25 комфорт 1012.0 942.4
04 19.07 С 2 19 км н/о +24.0 +8.0 36 +24 +24 комфорт 1012.4 942.5
05 19.07 СВ 2 20 км н/о +21.9 +8.4 42 +23 +23 комфорт 1013.2 942.8
06 19.07 В 2 20 км ясно +20.9 +9.8 49 +23 +24 комфорт 1013.7 943.1 +20.8
07 19.07 С 1 20 км н/о +22.9 +11.0 47 +25 +25 комфорт 1013.8 943.6
08 19.07 СВ 1 20 км н/о +26.2 +10.8 38 +27 +27 жарко 1013.2 943.8
09 19.07 В 1 19 км н/о +29.8 +10.8 31 +30 +30 жарко 1012.1 943.6
10 19.07 СЗ 1 18 км н/о +32.9 +10.3 25 +32 +32 жарко 1011.2 943.4
11 19.07 З 2 20 км н/о +35.2 +10.9 23 +35 +35 очень
жарко
1010.2 943.0
12 19.07 ЮЗ 2 20 км 3/3 600 м
[Cu hum]
+36.2 +10.4 21 +35 +50 очень
жарко
1009.6 942.6
13 19.07 З 2 20 км н/о +37.2 +8.9 18 +35 +35 очень
жарко
1008.7 941.9
14 19.07 З 2 20 км н/о +38.5 +9.1 17 +37 +37 очень
жарко
1007.5 941.1
15 19.07 ЮВ 3 20 км н/о +38.9 +8.5 16 +37 +37 очень
жарко
1006.9 940.6
16 19.07 Ю 2 20 км н/о +39.1 +6.7 14 +37 +37 очень
жарко
1006.4 940.1
17 19.07 СВ 2 20 км н/о +38.3 +7.1 15 +36 +36 очень
жарко
1006.1 939.7
18 19.07 ЮЗ 2 18 км н/о +37.2 +6.2 15 +35 +35 очень
жарко
1006.2 939.6 +39.1
19 19.07 З 1 20 км н/о +35.3 +6.5 17 +33 +33 жарко 1006.8 939.7
20 19.07 СВ 1 19 км н/о +33.1 +7.1 20 +31 +31 жарко 1007.5 939.9
21 19.07 Ю 1 20 км н/о +30.8 +7.9 24 +30 +30 жарко 1008.6 940.5
22 19.07 СВ 2 20 км н/о +29.2 +7.1 25 +28 +28 жарко 1009.2 940.7
23 19.07 В 2 20 км н/о +27.7 +8.0 29 +27 +27 жарко 1009.8 940.9
00 20.07 С 1 20 км н/о +27.1 +8.5 31 +27 +27 жарко 1009.7 940.7
01 20.07 СВ 2 20 км н/о +25.1 +8.6 35 +26 +26 жарко 1010.1 940.6
02 20.07 ЮЗ 1 20 км н/о +24.0 +8.8 38 +25 +25 комфорт 1010.5 940.8
03 20.07 СЗ 1 20 км н/о +24.0 +8.8 38 +25 +25 комфорт 1011.0 941.2
05 20.07 штиль 0 20 км н/о +22.5 +10.6 47 +24 +24 комфорт 1012.0 941.9
06 20.07 С 1 20 км н/о +22.0 +10.5 48 +24 +24 комфорт 1013.0 942.7 +21.8
07 20.07 З 2 20 км н/о +25.1 +10.5 40 +26 +26 жарко 1012.7 943.1
08 20.07 ЮЗ 2 20 км н/о +28.5 +11.1 34 +29 +29 жарко 1012.2 943.4
09 20.07 З 2 20 км н/о +31.1 +11.5 30 +31 +31 жарко 1011.6 943.4
10 20.07 З 2 19 км н/о +33.3 +11.8 27 +33 +33 жарко 1011.2 943.5
11 20.07 СЗ 2 20 км н/о +34.8 +10.6 23 +34 +34 очень
жарко
1010.7 943.3
12 20.07 Ю 3 20 км н/о +36.8 +10.9 21 +36 +36 очень
жарко
1009.9 943.0
13 20.07 Ю 2 20 км н/о +37.8 +10.2 19 +37 +37 очень
жарко
1009.5 942.8
14 20.07 Ю 2 20 км н/о +38.4 +10.7 19 +37 +37 очень
жарко
1008.9 942.4
15 20.07 СЗ 2 20 км н/о +38.6 +10.0 18 +37 +37 очень
жарко
1008.4 942.0
16 20.07 ЮЗ 2 20 км н/о +38.7 +10.9 19 +38 +38 очень
жарко
1008.2 941.8
17 20.07 СЗ 2 19 км н/о +38.5 +10.0 18 +37 +37 очень
жарко
1008.0 941.6
18 20.07 ЮЗ 2 20 км н/о +37.4 +9.9 19 +36 +36 очень
жарко
1008.5 941.8 +38.8
19 20.07 З 3 20 км н/о +35.6 +9.2 20 +34 +34 очень
жарко
1009.3 942.2
20 20.07 СЗ 3 20 км н/о +33.9 +7.8 20 +32 +32 жарко 1010.4 942.8 0.0
21 20.07 З 3 20 км н/о +32.4 +7.3 21 +31 +31 жарко 1011.6 943.6 0.0
22 20.07 СЗ 2 20 км н/о +31.0 +8.1 24 +30 +30 жарко 1012.2 943.9
23 20.07 З 2 20 км н/о +30.0 +9.0 27 +29 +29 жарко 1012.8 944.2
00 21.07 Ю 1 20 км дымка н/о +28.7 +9.4 30 +29 +29 жарко 1013.7 944.8
01 21.07 З 1 20 км н/о +28.0 +8.8 30 +28 +28 жарко 1013.7 944.6
02 21.07 СВ 1 20 км н/о +26.4 +9.7 35 +27 +27 жарко 1014.1 944.7
03 21.07 ЮВ 1 20 км н/о +25.5 +10.1 38 +26 +26 жарко 1014.4 944.8
04 21.07 В 1 20 км н/о +24.4 +9.9 40 +25 +25 комфорт 1014.8 944.9
05 21.07 ЮВ 1 20 км н/о +23.7 +10.0 42 +25 +25 комфорт 1015.2 945.1
06 21.07 В 1 20 км дымка н/о +23.1 +10.5 45 +25 +25 комфорт 1016.1 945.8 +23.1
07 21.07 В 1 20 км н/о +24.8 +11.7 44 +26 +26 жарко 1016.2 946.3
08 21.07 СЗ 2 20 км н/о +28.1 +10.8 34 +29 +29 жарко 1015.6 946.5
09 21.07 СЗ 2 20 км н/о +30.3 +10.8 30 +30 +30 жарко 1015.1 946.5
10 21.07 ЮВ 1 20 км н/о +33.1 +10.4 25 +33 +33 жарко 1014.5 946.5
11 21.07 Ю 2 19 км н/о +36.1 +10.3 21 +35 +35 очень
жарко
1013.9 946.6
12 21.07 В 2 19 км н/о +37.0 +10.3 20 +36 +36 очень
жарко
1013.4 946.3
13 21.07 СВ 2 20 км н/о +38.2 +11.3 20 +37 +37 очень
жарко
1012.7 945.9
14 21.07 ЮВ 3 20 км н/о +39.3 +10.6 18 +38 +38 очень
жарко
1012.0 945.5
15 21.07 В 2 19 км н/о +39.5 +9.9 17 +38 +38 очень
жарко
1011.2 944.8
16 21.07 СВ 1 20 км н/о +39.7 +10.1 17 +38 +38 очень
жарко
1010.7 944.3
17 21.07 СВ 2 20 км н/о +39.5 +9.9 17 +38 +38 очень
жарко
1010.4 944.0
18 21.07 Ю 3 19 км н/о +37.5 +10.0 19 +36 +36 очень
жарко
1011.0 944.2 +40.0
19 21.07 СВ 2 19 км н/о +36.3 +10.5 21 +35 +35 очень
жарко
1011.5 944.4
20 21.07 В 5 18 км н/о +34.9 +10.0 22 +34 +34 очень
жарко
1012.4 944.9 0.0
21 21.07 В 4 20 км н/о +32.8 +8.9 23 +32 +32 жарко 1014.3 946.2 0.0
22 21.07 В 4 20 км н/о +30.8 +6.6 22 +29 +29 жарко 1015.4 946.8
23 21.07 В 4 20 км н/о +29.0 +6.4 24 +28 +28 жарко 1016.0 947.0
00 22.07 В 4 20 км дымка н/о +27.4 +6.2 26 +27 +27 жарко 1016.6 947.2
01 22.07 СВ 4 20 км н/о +25.8 +6.9 30 +26 +26 жарко 1016.9 947.1
02 22.07 СВ 3 20 км н/о +24.4 +6.2 31 +24 +24 комфорт 1017.1 947.0
03 22.07 СВ 3 20 км н/о +23.5 +6.7 34 +24 +24 комфорт 1017.4 947.0
04 22.07 СВ 3 20 км н/о +22.8 +8.9 41 +24 +24 комфорт 1017.7 947.2
05 22.07 В 3 19 км н/о +22.2 +10.7 48 +24 +24 комфорт 1018.0 947.4
06 22.07 СВ 2 20 км ясно +21.9 +11.3 51 +24 +25 комфорт 1018.3 947.6 +21.9
07 22.07 СВ 3 20 км н/о +23.7 +11.1 45 +25 +25 комфорт 1018.4 948.1
08 22.07 СВ 3 20 км н/о +26.4 +10.9 38 +27 +27 жарко 1017.9 948.2
09 22.07 СВ 2 20 км ясно +29.4 +12.3 35 +30 +41 жарко 1017.1 948.2
10 22.07 В 3 19 км н/о +32.4 +13.1 31 +33 +33 жарко 1016.4 948.2
11 22.07 В 3 20 км н/о +34.4 +13.8 29 +35 +35 очень
жарко
1015.4 947.7
12 22.07 СВ 4 20 км ясно +35.8 +12.7 25 +36 +50 очень
жарко
1014.3 947.0
13 22.07 В 4 19 км н/о +37.0 +11.8 22 +36 +36 очень
жарко
1013.5 946.4
14 22.07 СВ 3 20 км н/о +38.4 +10.7 19 +37 +37 очень
жарко
1012.6 945.9
15 22.07 ЮВ 3 20 км н/о +39.4 +8.9 16 +38 +38 очень
жарко
1011.7 945.2
16 22.07 В 2 19 км н/о +39.4 +8.0 15 +37 +37 очень
жарко
1010.8 944.3
17 22.07 В 4 20 км н/о +39.4 +8.9 16 +38 +38 очень
жарко
1010.0 943.6
18 22.07 Ю 3 20 км 3/3 300 м
[Cu med, cong]
+38.5 +8.2 16 +36 +37 очень
жарко
1010.0 943.4 +39.7
19 22.07 Ю 3 18 км н/о +36.7 +8.5 18 +35 +35 очень
жарко
1010.5 943.5
20 22.07 Ю 2 19 км н/о +34.9 +8.6 20 +33 +33 жарко 1011.2 943.8
21 22.07 ЮВ 5 19 км н/о +34.0 +7.9 20 +32 +32 жарко 1012.3 944.6
22 22.07 ЮВ 3 20 км н/о +32.5 +8.0 22 +31 +31 жарко 1013.2 945.1
23 22.07 В 2 20 км н/о +30.9 +8.0 24 +30 +30 жарко 1013.9 945.4
00 23.07 СВ 2 20 км н/о +29.2 +7.7 26 +28 +28 жарко 1014.8 945.9
01 23.07 СВ 1 20 км н/о +28.2 +8.5 29 +28 +28 жарко 1014.9 945.8 0.0
02 23.07 СВ 1 20 км н/о +26.1 +3.9 24 +25 +25 комфорт 1015.7 946.0
03 23.07 СВ 2 20 км н/о +24.5 +3.7 26 +24 +24 комфорт 1015.7 945.6 0.0
04 23.07 В 1 20 км н/о +23.5 +4.4 29 +23 +23 комфорт 1015.7 945.4
05 23.07 С 1 20 км н/о +22.8 +5.2 32 +23 +23 комфорт 1016.2 945.7
06 23.07 СВ 1 20 км 1/1 600 м
[Sc diur, vesp]
+22.4 +6.2 35 +23 +24 комфорт 1016.5 945.9 +22.3
07 23.07 СВ 3 20 км н/о +24.2 +9.4 39 +25 +25 комфорт 1016.4 946.3
08 23.07 СВ 2 20 км н/о +27.2 +8.6 31 +27 +27 жарко 1015.6 946.2
09 23.07 СВ 2 20 км ясно +29.9 +8.9 27 +29 +40 жарко 1014.7 946.0
10 23.07 В 2 20 км н/о +32.6 +9.4 24 +32 +32 жарко 1013.6 945.6
11 23.07 В 3 20 км н/о +34.7 +8.4 20 +33 +33 жарко 1012.8 945.2

 

Местоположение метеостанции Сьюдад-Реаль (Испания): широта 38.98 долгота -3.92 высота над уровнем моря 629 м.

В архиве по умолчанию представлена погода в Сьюдад-Реале за последнюю неделю. Архивные данные за месяц целиком и за предыдущие месяцы, начиная с января 2011 года, Вы можете получить, выбрав интересующий диапазон дат из раскрывающегося списка и нажав кнопку "Ввод!".


*Определитесь, кто Вы:
робот инопланетянин человек

Внимание! Время в таблицах - всемирное. Для получения местного времени необходимо прибавить поправку, которая равна 1 ч.

Смотрите также архив погоды в соседних городах и на ближайших метеорологических станциях:

Погода в Вальдепеньясе (Испания) (53 км)
Погода в Висо-дель-Маркесе (Испания) (59 км)
Погода в Пуэбла-де-дон-Родриго (Испания) (62 км)
Погода в Мадридехосе (Испания) (66 км)
Погода в Сан-Пабло-де-лос-Монтесе (Испания) (73 км)
Погода в Санта Элена (Испания) (78 км)
Погода в Томельосо (Испания) (81 км)
Погода в Вильянуэва-де-Кордобе (Испания) (94 км)
Погода в Эррера-дель-Дуке (Испания) (101 км)
Погода в Толедо (Испания) (101 км)

Пояснения к столбцам:

Ветер - указаны скорость ветра в м/с - средняя за 10 мин, порывы в срок и между сроками (в фигурных скобках) и направление, откуда дует ветер: С - северный, СВ - северо-восточный, В - восточный, ЮВ - юго-восточный, Ю - южный, ЮЗ - юго-западный, З - западный, СЗ - северо-западный.
Видимость - горизонтальная дальность видимости в метрах или километрах. При видимости от 1 до 10 км при отсутствии осадков обычно наблюдается дымка, при ухудшении видимости до 1 км и менее - туман. В сухую погоду видимость может ухудшаться дымом, пылью или мглою.
Явления - указаны атмосферные явления, наблюдавшиеся в срок или в последний час перед сроком; фигурными скобками обозначены явления, наблюдавшиеся между сроками (за 1-3 часа до срока); квадратными скобками обозначены град или гололедные отложения с указанием их диаметра в мм.
Облачность - указаны через наклонную черту общая и нижняя облачность в баллах и высота нижней границы облаков в метрах; квадратными скобками обозначены формы облаков: Ci - перистые, Cs - перисто-слоистые, Cc - перисто-кучевые, Ac - высококучевые, As - высокослоистые, Sc - слоисто-кучевые, Ns - слоисто-дождевые, Cu - кучевые, Cb - кучево-дождевые. Подробнее классификацию облаков см. в Атласе облаков (PDF).
T - Температура воздуха - температура, измеренная на высоте 2 м над землей.
Td - Температура точки росы - температура, при понижении до которой содержащийся в воздухе водяной пар достигнет насыщения.
f - Относительная влажность воздуха - влажноcть воздуха, измеренная на высоте 2 м над землей.
Te - Эффективная температура - температура, которую ощущает одетый по сезону человек в тени. Характеристика душности погоды. При расчете учитывается влияние влажности воздуха и скорости ветра на теплоощущения человека.
Tes - Эффективная температура на солнце - температура, которую ощущает человек, с поправкой на солнечный нагрев. Характеристика знойности погоды. Зависит от высоты солнца над горизонтом, облачности и скорости ветра. Ночью, в пасмурную погоду, а также при ветре 12 м/с и более поправка равна нулю.
P - Атмосферное давление - приведенное к уровню моря атмосферное давление.
Po - Атмосферное давление - измеренное на уровне метеостанции атмосферное давление.
Tmin - Минимальная температура - минимум температуры воздуха на высоте 2 м над землей.
Tmax - Максимальная температура - максимум температуры воздуха на высоте 2 м над землей.
R - Количество осадков - Количество выпавших осадков за период времени, мм. При наведении курсора мыши на число - период времени, за который выпало указанное количество осадков.
R24 - Количество осадков - Количество выпавших осадков за 24 часа, мм.
S - Снежный покров - Высота снежного покрова, см. При наведении курсора мыши на число - состояние снежного покрова и степень покрытия местности в баллах.